sat.trackr.live / text

‹ back to catalog

STARLINK-36475

NORAD 67350 · 2026-003S

PAYLOAD ACTIVE UNKNOWN

§ Identity

Operator
Country
US
Launch date
2026-01-09
Launch site
AFETR
Launch vehicle
Mass (kg)
RCS (m²)

Purposes: comms

External: N2YO · Heavens-Above · Gunter

§ Orbital elements

Epoch: 2026-09-19T22:25:09.127488Z

Period
94.27 min
Inclination
42.9983°
Eccentricity
0.0001136
Mean motion
15.27555046 rev/d
Perigee alt
482.3 km
Apogee alt
483.9 km
Semi-major
6,861.3 km
B*
6.3185e-4
RAAN
209.8527°
Arg perigee
264.4385°
Mean anomaly
95.6337°
Rev number
3,853

§ Raw data

STARLINK-364751 67350U 26003S   26262.93413342  .00017152  00000+0  63185-3 0  99902 67350  42.9983 209.8527 0001136 264.4385  95.6337 15.27555046 38536

JSON: /api/v1/satellites/67350 · /tle

For live sub-satellite position, see the globe view (requires WebGL).

§ Visibility from observer

Set your observer location to see the next 7 days of passes ≥ 10°. The values pass through the URL so the page stays shareable.

No JS? Fill the form by hand. The geolocation button needs JavaScript.